GW3250 Weather Reports


time (UTC)temp
F
wind
direction
speed
knots
gust
knots
rain 1hr
in
rain 24hr
in
rain mn
in
humidity
%
barometer
mb
20260902051639 66 67 0.9 0.9 0.00 0.00 0.00 99 1016.6
20260902051133 66 71 0.0 0.0 0.00 0.00 0.00 99 1016.8
20260902050628 66 67 0.0 0.0 0.00 0.00 0.00 99 1016.7
20260902050123 66 260 1.7 3.5 0.00 0.00 0.00 99 1016.6
20260902045618 66 147 0.0 0.9 0.00 0.00 0.00 99 1016.6
20260902045115 67 149 0.0 0.9 0.00 0.00 0.00 99 1016.5
20260902044614 67 131 0.9 0.9 0.00 0.00 0.00 99 1016.7
20260902044110 67 124 0.0 0.9 0.00 0.00 0.00 99 1016.7
20260902043606 67 124 1.7 1.7 0.00 0.00 0.00 99 1016.5
20260902043100 67 41 0.9 0.9 0.00 0.00 0.00 99 1016.4
20260902042559 67 41 0.0 0.0 0.00 0.00 0.00 99 1016.7
20260902042055 67 123 0.9 0.9 0.00 0.00 0.00 99 1016.5
20260902041555 67 123 0.9 1.7 0.00 0.00 0.00 99 1016.6
20260902041049 68 123 0.9 0.9 0.00 0.00 0.00 99 1016.3
20260902040544 68 132 0.0 0.9 0.00 0.00 0.00 99 1016.3
20260902040039 68 122 0.0 0.0 0.00 0.43 0.43 99 1016.1
20260902035537 68 126 0.9 0.9 0.00 0.43 0.43 99 1016.2
20260902035033 68 126 0.0 0.0 0.00 0.43 0.43 99 1016.2
20260902034532 68 134 0.0 0.0 0.00 0.43 0.43 99 1016.1
20260902034031 68 134 0.9 0.9 0.00 0.43 0.43 99 1015.6
20260902033531 68 143 0.0 0.9 0.00 0.43 0.43 99 1016.2
20260902033026 69 125 0.9 0.9 0.00 0.43 0.43 99 1015.8
20260902032524 69 152 0.0 0.9 0.00 0.43 0.43 99 1015.7
20260902032020 69 110 0.0 0.0 0.00 0.43 0.43 99 1015.5
20260902031514 69 121 0.0 0.9 0.00 0.43 0.43 99 1015.6
20260902031010 69 122 0.0 0.9 0.00 0.43 0.43 99 1015.4
20260902030505 69 133 0.0 0.0 0.00 0.43 0.43 99 1015.4
20260902030005 69 133 0.0 0.0 0.00 0.43 0.43 99 1015.3
20260902025500 69 134 0.0 0.0 0.00 0.43 0.43 99 1015.2
20260902024954 69 133 0.0 0.0 0.00 0.43 0.43 99 1015.2
20260902024450 69 137 0.0 0.0 0.00 0.43 0.43 99 1015.1
20260902023944 69 138 0.9 0.9 0.00 0.43 0.43 99 1015.0
20260902023440 69 112 0.0 0.9 0.00 0.43 0.43 99 1015.1
20260902022939 69 112 0.0 0.0 0.00 0.43 0.43 99 1015.0
20260902022434 69 112 0.0 0.9 0.00 0.43 0.43 99 1014.8
20260902021930 70 109 0.9 0.9 0.00 0.43 0.43 99 1014.6
20260902021425 70 119 0.9 0.9 0.00 0.43 0.43 99 1014.7
20260902020920 70 119 0.9 0.9 0.00 0.43 0.43 99 1014.7
20260902020417 70 119 0.9 0.9 0.00 0.43 0.43 99 1014.6
20260902015912 70 119 0.0 0.0 0.00 0.43 0.43 99 1014.6
20260902015408 70 119 0.0 0.0 0.00 0.43 0.43 99 1014.8
20260902014903 70 119 0.0 0.0 0.00 0.43 0.43 99 1014.8
20260902014359 70 119 0.9 0.9 0.00 0.43 0.43 99 1014.9
20260902013858 70 124 0.0 0.0 0.00 0.43 0.43 99 1014.8
20260902013354 70 124 0.9 0.9 0.00 0.43 0.43 99 1014.9
20260902012850 71 124 0.0 0.0 0.00 0.43 0.43 99 1014.8
20260902012345 71 124 0.0 0.9 0.00 0.43 0.43 99 1015.1
20260902011841 71 124 0.9 0.9 0.00 0.43 0.43 99 1015.1
20260902011335 71 124 0.0 0.9 0.00 0.43 0.43 99 1014.6
20260902010834 71 136 0.9 0.9 0.00 0.43 0.43 99 1014.9
20260902010329 71 153 0.0 0.9 0.00 0.43 0.43 99 1014.8
20260902005828 71 129 0.0 0.0 0.00 0.43 0.43 99 1014.4
20260902005323 71 123 0.0 0.9 0.00 0.43 0.43 99 1014.3
20260902004819 71 123 0.9 0.9 0.00 0.43 0.43 99 1014.3
20260902004314 71 121 0.9 1.7 0.00 0.43 0.43 99 1014.2
20260902003814 71 121 0.0 0.9 0.00 0.43 0.43 99 1014.3
20260902003309 71 115 0.9 1.7 0.00 0.43 0.43 99 1014.1
20260902002805 71 118 0.0 0.9 0.00 0.43 0.43 99 1013.9
20260902002259 71 118 0.0 0.0 0.00 0.43 0.43 99 1013.6
20260902001754 71 118 0.0 0.0 0.00 0.43 0.43 99 1013.7
20260902001249 71 118 0.9 0.9 0.00 0.43 0.43 99 1013.7
20260902000743 71 118 0.9 0.9 0.00 0.43 0.43 99 1013.6
20260902000238 71 119 0.0 0.0 0.00 0.43 0.43 99 1013.4
20260901235733 72 118 0.0 0.0 0.00 0.43 0.43 99 1013.3
20260901235228 72 118 0.0 0.9 0.00 0.43 0.43 99 1013.4
20260901234728 72 118 0.0 0.9 0.00 0.43 0.43 99 1013.3
20260901234228 72 118 0.0 0.0 0.00 0.43 0.43 99 1013.1
20260901233722 73 118 0.0 0.0 0.00 0.43 0.43 99 1013.3
20260901233218 73 118 0.0 0.0 0.00 0.43 0.43 99 1013.0
20260901232713 73 118 0.0 0.0 0.00 0.43 0.43 99 1013.2
20260901232208 74 118 0.0 0.0 0.00 0.43 0.43 98 1013.3
20260901231705 74 118 0.0 0.0 0.00 0.43 0.43 98 1013.4
20260901231201 74 118 0.0 0.9 0.00 0.43 0.43 99 1013.6
20260901230656 74 118 0.0 0.0 0.00 0.43 0.43 99 1013.6
20260901230155 74 118 0.0 0.0 0.00 0.43 0.43 99 1013.8
20260901225651 74 118 0.0 0.0 0.00 0.43 0.43 99 1014.1
20260901225145 74 118 0.0 0.0 0.00 0.43 0.43 99 1013.8
20260901224642 74 118 0.0 0.0 0.00 0.43 0.43 98 1014.0
20260901224138 75 118 0.0 0.0 0.00 0.43 0.43 97 1013.9
20260901223633 75 118 0.0 0.0 0.00 0.43 0.43 97 1013.8
20260901223128 76 118 0.0 0.0 0.00 0.43 0.43 95 1013.4
20260901222624 76 118 0.0 0.0 0.00 0.43 0.43 94 1013.3
20260901222120 77 118 0.0 0.0 0.00 0.43 0.43 94 1013.1
20260901221615 77 118 0.0 0.0 0.00 0.43 0.43 93 1013.0
20260901221111 77 118 0.0 0.0 0.00 0.43 0.43 92 1012.8
20260901220610 77 118 0.0 0.9 0.00 0.43 0.43 92 1012.8
20260901220109 78 118 0.0 0.0 0.00 0.43 0.43 91 1013.0
20260901215608 78 171 0.0 0.0 0.00 0.43 0.43 92 1012.8
20260901215102 80 172 0.0 0.0 0.00 0.43 0.43 90 1012.8
20260901214601 80 173 0.9 1.7 0.00 0.43 0.43 88 1013.2
20260901214101 80 148 0.0 0.0 0.00 0.43 0.43 88 1013.1
20260901213555 80 159 0.9 0.9 0.00 0.43 0.43 89 1012.8
20260901213050 80 87 0.0 0.0 0.00 0.43 0.43 89 1013.1
20260901212549 79 85 0.0 0.0 0.00 0.43 0.43 91 1013.2
20260901212046 79 123 0.0 0.0 0.00 0.43 0.43 91 1013.3
20260901211541 80 115 0.9 0.9 0.00 0.43 0.43 89 1013.1
20260901211038 79 116 0.9 0.9 0.00 0.43 0.43 91 1012.7
20260901210532 79 116 0.0 0.0 0.00 0.43 0.43 91 1012.8
20260901210029 78 119 0.0 0.0 0.00 0.43 0.43 92 1013.2
20260901205523 78 119 0.0 0.9 0.00 0.43 0.43 93 1012.8
20260901205018 78 119 0.0 0.0 0.00 0.43 0.43 92 1012.8
20260901204515 79 122 0.0 0.0 0.00 0.43 0.43 93 1012.7
20260901204009 80 121 0.9 0.9 0.00 0.43 0.43 89 1012.7
20260901203503 81 121 0.0 0.0 0.00 0.43 0.43 87 1012.8
20260901202958 81 105 0.0 0.0 0.00 0.43 0.43 86 1012.7
20260901202453 81 98 0.9 0.9 0.00 0.43 0.43 87 1013.0
20260901201943 80 173 0.9 0.9 0.00 0.43 0.43 89 1012.5
20260901201438 79 173 0.0 0.9 0.00 0.43 0.43 91 1012.7
20260901200932 78 173 0.0 0.0 0.00 0.43 0.43 92 1012.8
20260901200426 79 173 0.0 0.0 0.00 0.43 0.43 93 1013.1
20260901195920 79 173 0.0 0.0 0.00 0.43 0.43 93 1013.0
20260901195419 79 173 0.0 0.0 0.00 0.43 0.43 90 1012.8
20260901194914 79 173 0.0 0.0 0.00 0.43 0.43 91 1013.0
20260901194408 79 173 0.0 0.0 0.00 0.43 0.43 92 1013.0
20260901193904 79 173 0.0 0.0 0.00 0.43 0.43 93 1012.8
20260901193403 79 173 0.0 0.0 0.00 0.43 0.43 92 1013.1
20260901192858 79 173 0.0 0.0 0.00 0.43 0.43 91 1012.8
20260901192354 79 173 0.0 0.0 0.00 0.43 0.43 91 1012.8
20260901191850 79 173 0.0 0.0 0.00 0.43 0.43 91 1013.1
20260901191345 78 173 0.0 0.0 0.00 0.43 0.43 94 1013.1
20260901190841 78 173 0.0 0.0 0.00 0.43 0.43 95 1013.0
20260901190340 78 173 0.0 0.9 0.00 0.43 0.43 93 1013.1
20260901185839 78 173 0.0 0.9 0.00 0.43 0.43 93 1012.8
20260901185333 78 173 0.0 0.0 0.00 0.43 0.43 94 1012.8
20260901184828 79 104 1.7 1.7 0.00 0.43 0.43 92 1013.0
20260901184324 80 197 0.9 0.9 0.00 0.43 0.43 92 1013.1
20260901183819 80 176 1.7 1.7 0.00 0.43 0.43 93 1013.2
20260901183318 79 171 1.7 1.7 0.00 0.43 0.43 92 1013.2
20260901182815 78 167 0.0 0.9 0.00 0.43 0.43 95 1013.2
20260901182314 78 173 5.2 7.0 0.00 0.43 0.43 93 1013.2
20260901181809 78 182 0.0 0.9 0.00 0.43 0.43 95 1013.1
20260901181308 79 195 0.9 0.9 0.00 0.43 0.43 93 1013.4
20260901180802 80 177 1.7 1.7 0.00 0.43 0.43 92 1013.4
20260901180302 80 184 0.0 0.9 0.00 0.43 0.43 92 1013.0
20260901175800 78 184 0.9 0.9 0.00 0.43 0.43 91 1012.8
20260901175256 78 190 0.9 0.9 0.00 0.43 0.43 93 1012.8
20260901174750 77 199 1.7 2.6 0.00 0.43 0.43 93 1013.0
20260901174247 77 182 2.6 2.6 0.00 0.43 0.43 94 1013.0
20260901173742 76 173 0.9 0.9 0.00 0.43 0.43 96 1013.1
20260901173237 74 195 1.7 1.7 0.00 0.43 0.43 98 1013.1
20260901172733 74 188 0.9 0.9 0.00 0.43 0.43 99 1012.7
20260901172232 73 187 0.9 0.9 0.00 0.43 0.43 99 1013.2
20260901171730 73 187 0.9 1.7 0.00 0.43 0.43 99 1013.2
20260901171230 73 178 0.0 0.0 0.00 0.43 0.43 99 1013.3
20260901170729 73 176 0.9 0.9 0.00 0.43 0.43 99 1013.2
20260901170224 72 182 0.9 0.9 0.00 0.43 0.43 99 1013.5
20260901165722 72 168 0.0 0.0 0.00 0.43 0.43 99 1013.3
20260901165217 71 203 0.0 0.9 0.00 0.43 0.43 99 1013.4
20260901164714 70 202 1.7 1.7 0.00 0.43 0.43 99 1013.4
20260901164209 71 202 0.9 0.9 0.00 0.43 0.43 99 1013.5
20260901163705 70 202 0.0 0.0 0.00 0.43 0.43 99 1013.6
20260901163204 71 202 0.0 0.0 0.00 0.43 0.43 99 1013.5
20260901162659 71 202 0.0 0.0 0.00 0.43 0.43 99 1013.9
20260901162158 70 201 0.9 0.9 0.00 0.43 0.43 99 1013.8
20260901161657 69 201 0.0 0.0 0.00 0.43 0.43 99 1014.0
20260901161157 70 162 0.9 0.9 0.00 0.43 0.43 99 1013.9
20260901160654 69 162 0.0 0.0 0.05 0.43 0.43 99 1014.0
20260901160148 68 162 0.9 0.9 0.12 0.43 0.43 99 1013.7
20260901155648 68 162 0.0 0.0 0.19 0.42 0.42 99 1014.2
20260901155143 68 162 0.0 0.0 0.24 0.41 0.41 99 1014.7
20260901154637 68 195 1.7 2.6 0.19 0.39 0.39 99 1014.3
20260901154132 69 163 0.0 0.9 0.07 0.37 0.37 99 1014.6
20260901153622 69 147 0.0 0.0 0.00 0.36 0.36 99 1013.9
20260901153121 69 147 0.0 0.0 0.00 0.36 0.36 99 1013.8
20260901152616 68 147 0.0 0.0 0.00 0.36 0.36 99 1013.9
20260901152114 68 147 0.0 0.9 0.00 0.36 0.36 99 1013.9
20260901151611 69 147 0.0 0.0 0.00 0.36 0.36 99 1014.0
20260901151110 68 147 0.0 0.0 0.00 0.36 0.36 99 1014.0
20260901150603 68 147 0.0 0.0 0.00 0.36 0.36 99 1013.9
20260901145601 68 147 0.0 0.0 0.00 0.36 0.36 99 1014.1
20260901145100 68 147 0.0 0.9 0.00 0.36 0.36 99 1014.0
20260901144556 68 147 0.0 0.0 0.05 0.36 0.36 99 1014.0
20260901144050 67 147 0.0 0.0 0.24 0.36 0.36 99 1014.1
20260901143546 67 146 0.0 0.0 0.61 0.35 0.35 99 1014.4
20260901143038 67 185 0.9 0.9 0.66 0.32 0.32 99 1014.9
20260901142538 67 188 0.9 0.9 0.47 0.25 0.25 99 1015.0
20260901142033 67 177 0.0 0.0 0.35 0.21 0.21 99 1015.2
20260901141533 67 177 0.0 0.9 0.24 0.17 0.17 99 1015.0
20260901141027 67 179 0.0 0.9 0.19 0.15 0.15 99 1014.7
20260901140526 67 202 0.9 0.9 0.07 0.13 0.13 99 1014.6
20260901140021 67 142 0.0 0.0 0.05 0.12 0.12 99 1014.8
20260901135520 67 141 0.9 0.9 0.05 0.12 0.12 99 1014.7
20260901135016 67 181 0.0 0.0 0.12 0.11 0.11 99 1014.7
20260901134511 67 202 0.9 0.9 0.35 0.11 0.11 99 1014.6
20260901134006 68 177 0.0 0.0 0.24 0.09 0.09 99 1014.3
20260901133504 67 196 0.9 0.9 0.12 0.05 0.05 99 1014.7
20260901132958 68 155 0.0 0.0 0.12 0.05 0.05 99 1014.5
20260901132457 68 155 0.0 0.0 0.07 0.03 0.03 99 1014.3
20260901131956 68 155 0.0 0.0 0.07 0.03 0.03 99 1014.4
20260901131451 68 155 0.0 0.0 0.00 0.02 0.02 99 1014.2
20260901130947 68 155 0.0 0.0 0.00 0.02 0.02 99 1014.5
20260901130441 68 155 0.0 0.0 0.00 0.02 0.02 99 1014.4
20260901125938 68 155 0.0 0.9 0.00 0.02 0.02 99 1014.5
20260901125432 68 155 0.0 0.0 0.00 0.02 0.02 99 1014.5
20260901124927 68 155 0.0 0.0 0.00 0.02 0.02 99 1014.3
20260901124422 68 155 0.0 0.0 0.00 0.02 0.02 99 1014.3
20260901123917 68 155 0.0 0.9 0.00 0.02 0.02 99 1014.3
20260901123412 68 155 0.9 0.9 0.00 0.02 0.02 99 1014.5
20260901122910 68 155 0.0 0.0 0.00 0.02 0.02 99 1014.5
20260901122405 67 155 0.0 0.0 0.00 0.02 0.02 99 1014.4
20260901121904 67 155 0.0 0.0 0.00 0.02 0.02 99 1014.3
20260901121359 67 155 0.0 0.0 0.00 0.02 0.02 99 1014.4
20260901120855 67 155 0.0 0.0 0.00 0.02 0.02 99 1014.4
20260901120349 67 155 0.0 0.0 0.00 0.02 0.02 99 1014.3
20260901115845 67 155 0.0 0.0 0.00 0.02 0.02 99 1014.3
20260901115339 67 155 0.0 0.0 0.00 0.02 0.02 99 1014.5
20260901114837 66 155 0.0 0.9 0.00 0.02 0.02 99 1014.2
20260901114337 66 155 0.9 0.9 0.00 0.02 0.02 99 1014.2
20260901113836 66 155 0.0 0.0 0.00 0.02 0.02 99 1014.1
20260901113335 66 155 0.0 0.0 0.00 0.02 0.02 99 1014.1
20260901112830 66 155 0.0 0.0 0.00 0.02 0.02 99 1014.2
20260901112330 66 155 0.0 0.0 0.00 0.02 0.02 99 1014.1
20260901111825 66 155 0.0 0.0 0.00 0.02 0.02 99 1014.2
20260901111323 65 155 0.0 0.9 0.00 0.02 0.02 99 1014.2
20260901110822 65 154 0.0 0.0 0.00 0.02 0.02 99 1014.1
20260901110318 65 154 0.0 0.0 0.00 0.02 0.02 99 1014.1
20260901105814 65 154 0.0 0.0 0.00 0.02 0.02 99 1014.2
20260901105308 65 154 0.0 0.0 0.00 0.02 0.02 99 1014.3
20260901104804 65 154 0.0 0.0 0.00 0.02 0.02 99 1014.4
20260901104259 65 154 0.0 0.0 0.00 0.02 0.02 99 1014.2
20260901103755 65 154 0.0 0.0 0.00 0.02 0.02 99 1014.2
20260901103249 65 154 0.0 0.0 0.00 0.02 0.02 99 1014.2
20260901102744 65 154 0.0 0.0 0.07 0.02 0.02 99 1014.2
20260901102239 65 154 0.0 0.0 0.07 0.02 0.02 99 1014.4
20260901101735 65 154 0.0 0.0 0.00 0.01 0.01 99 1014.4
20260901101234 65 154 0.0 0.0 0.00 0.01 0.01 99 1014.2
20260901100734 65 154 0.0 0.0 0.00 0.01 0.01 99 1014.5
20260901100229 65 154 0.0 0.0 0.00 0.01 0.01 99 1014.4
20260901095727 65 154 0.0 0.0 0.00 0.01 0.01 99 1014.7
20260901095224 65 154 0.0 0.0 0.00 0.01 0.01 99 1014.5
20260901094719 65 154 0.0 0.0 0.00 0.01 0.01 99 1014.5
20260901094214 65 154 0.0 0.0 0.00 0.01 0.01 99 1014.6
20260901093709 65 154 0.0 0.0 0.00 0.01 0.01 99 1014.4
20260901093208 65 154 0.0 0.0 0.00 0.01 0.01 99 1014.4
20260901092704 65 154 0.0 0.0 0.00 0.01 0.01 99 1014.5
20260901092200 65 154 0.0 0.0 0.00 0.01 0.01 99 1014.3
20260901091655 65 154 0.0 0.0 0.00 0.01 0.01 99 1014.4
20260901091150 65 154 0.0 0.0 0.00 0.01 0.01 99 1014.3
20260901090645 65 154 0.0 0.0 0.00 0.01 0.01 99 1014.4
20260901090140 65 154 0.0 0.0 0.00 0.01 0.01 99 1014.4
20260901085636 65 154 0.0 0.0 0.00 0.01 0.01 99 1014.2
20260901085131 65 154 0.0 0.0 0.00 0.01 0.01 99 1014.4
20260901084628 66 154 0.0 0.0 0.00 0.01 0.01 99 1014.6
20260901084124 66 154 0.0 0.0 0.00 0.01 0.01 99 1014.4
20260901083624 66 154 0.0 0.0 0.00 0.01 0.01 99 1014.5
20260901083122 66 154 0.0 0.0 0.00 0.01 0.01 99 1014.6
20260901082617 66 154 0.0 0.0 0.00 0.01 0.01 99 1014.5
20260901082112 66 154 0.0 0.0 0.00 0.01 0.01 99 1014.5
20260901081608 66 154 0.0 0.0 0.00 0.01 0.01 99 1014.7
20260901081108 66 154 0.0 0.0 0.00 0.01 0.01 99 1014.8
20260901080602 66 154 0.0 0.0 0.00 0.01 0.01 99 1014.8
20260901080101 66 155 0.0 0.0 0.00 0.01 0.01 99 1014.8
20260901075556 66 155 0.0 0.0 0.00 0.01 0.01 99 1014.7
20260901075056 66 155 0.0 0.0 0.00 0.01 0.01 99 1014.8
20260901074556 65 155 0.0 0.0 0.00 0.01 0.01 99 1014.9
20260901074051 65 155 0.0 0.0 0.00 0.01 0.01 99 1014.9
20260901073548 65 155 0.0 0.0 0.00 0.01 0.01 99 1014.8
20260901073048 65 155 0.0 0.0 0.00 0.01 0.01 99 1014.8
20260901072543 65 155 0.0 0.0 0.00 0.01 0.01 99 1014.9
20260901072037 65 155 0.0 0.0 0.00 0.01 0.01 99 1014.9
20260901071532 65 155 0.0 0.0 0.00 0.01 0.01 99 1014.9
20260901071030 65 155 0.0 0.0 0.00 0.01 0.01 99 1015.1
20260901070526 65 155 0.0 0.0 0.00 0.01 0.01 99 1015.2
20260901070021 65 155 0.0 0.0 0.00 0.01 0.01 99 1014.9
20260901065515 65 155 0.0 0.0 0.00 0.01 0.01 99 1015.0
20260901065010 65 155 0.0 0.0 0.00 0.01 0.01 99 1015.3
20260901064507 66 155 0.0 0.0 0.00 0.01 0.01 99 1015.1
20260901064004 66 155 0.0 0.0 0.00 0.01 0.01 99 1015.1
20260901063500 66 155 0.0 0.0 0.00 0.01 0.01 99 1015.0
20260901062955 66 155 0.0 0.0 0.00 0.01 0.01 99 1015.2
20260901062451 66 155 0.0 0.0 0.00 0.01 0.01 99 1015.2
20260901061947 66 155 0.0 0.0 0.00 0.01 0.01 99 1015.4
20260901061443 66 155 0.0 0.0 0.00 0.01 0.01 99 1015.4
20260901060942 66 155 0.0 0.0 0.00 0.01 0.01 99 1015.3
20260901060437 66 155 0.0 0.0 0.00 0.01 0.01 99 1015.5
20260901055932 66 155 0.0 0.0 0.00 0.01 0.01 99 1015.2
20260901055429 66 155 0.0 0.0 0.00 0.01 0.01 99 1015.3
20260901054925 66 155 0.0 0.0 0.00 0.01 0.01 99 1015.2
20260901054422 66 155 0.0 0.0 0.00 0.01 0.01 99 1015.3
20260901053918 66 155 0.0 0.0 0.00 0.01 0.01 99 1015.3
20260901053413 66 155 0.0 0.0 0.00 0.01 0.01 99 1015.4
20260901052908 66 155 0.0 0.0 0.00 0.01 0.01 99 1015.6
20260901052403 66 155 0.0 0.0 0.00 0.01 0.01 99 1015.8
20260901051902 66 155 0.0 0.0 0.00 0.01 0.01 99 1015.8